sat.trackr.live / text

‹ back to catalog

ONEWEB-0357

NORAD 49219 · 2021-083AK

PAYLOAD ACTIVE UNKNOWN

§ Identity

Operator
Country
UK
Launch date
2021-09-14
Launch site
TYMSC
Launch vehicle
Mass (kg)
RCS (m²)

Purposes: comms

External: N2YO · Heavens-Above · Gunter

§ Orbital elements

Epoch: 2026-05-25T02:24:24.416640Z

Period
109.03 min
Inclination
87.9176°
Eccentricity
0.0001691
Mean motion
13.20772093 rev/d
Perigee alt
1,180.5 km
Apogee alt
1,183.1 km
Semi-major
7,559.9 km
B*
8.1304e-5
RAAN
279.0353°
Arg perigee
100.7491°
Mean anomaly
259.3833°
Rev number
23,376

§ Raw data

ONEWEB-03571 49219U 21083AK  26145.10028260  .00000046  00000+0  81304-4 0  99952 49219  87.9176 279.0353 0001691 100.7491 259.3833 13.20772093233761

JSON: /api/v1/satellites/49219 · /tle

For live sub-satellite position, see the globe view (requires WebGL).

§ Visibility from observer

Set your observer location to see the next 7 days of passes ≥ 10°. The values pass through the URL so the page stays shareable.

No JS? Fill the form by hand. The geolocation button needs JavaScript.